Flag for United Kingdom Weather past 2 weeks in Luton, England, United Kingdom

Now
59 °F

Passing clouds.


Feels Like: 57 °F
Forecast: 39 / 59 °F
Wind: 12 mph from Northeast

Location: Luton Airport

Current Time: Apr 21, 2015 at 1:54:15 PM

Latest Report: Apr 21, 2015 at 1:20 PM


Visibility: N/A

Pressure: 30.54 "Hg

Humidity: 51%

Dew point: 41 °F

Location of LutonLocation

Historic Weather in Luton — Graph

°F

Luton temperature yesterday

Maximum temperature yesterday: 63 °F (at 3:20 PM)
Minimum temperature yesterday: 34 °F (at 5:50 AM)
Average temperature yesterday: 48 °F

Past Weeks' High & Low Weather Summary

 TemperatureHumidityPressure
High70 °F (Apr 15, 12:50 PM)100% (Apr 6, 10:50 PM)30.63 "Hg (Apr 6, 10:50 PM)
Low34 °F (Apr 18, 5:20 AM)33% (Apr 10, 4:50 PM)29.86 "Hg (Apr 11, 2:50 AM)
Average50 °F75%30.27 "Hg
* Reported Apr 6 12:20 PM — Apr 21 12:20 PM, Luton, Weather by CustomWeather, © 2015

Note: Actual official high and low records may vary slightly from our data, if they occured in-between our weather recording intervals... More about our weather records

Advertising

Luton weather history for previous 24 hours

 ConditionsComfort  
Time TempWeatherWind HumidityBarometerVisibility
12:20 PM
Tue, Apr 21
55 °FPassing clouds.12 mph63%30.57 "HgN/A
11:50 AM55 °FPassing clouds.10 mph63%30.57 "HgN/A
11:20 AM55 °FPassing clouds.9 mph59%30.57 "HgN/A
10:50 AM54 °FSunny.12 mph67%30.57 "Hg10 mi
10:20 AM52 °FSunny.12 mph72%30.57 "Hg10 mi
9:50 AM50 °FSunny.10 mph71%30.57 "Hg10 mi
9:20 AM48 °FSunny.9 mph76%30.57 "Hg10 mi
8:50 AM46 °FPassing clouds.8 mph82%30.54 "HgN/A
8:20 AM45 °FPassing clouds.9 mph87%30.54 "HgN/A
7:50 AM43 °FPassing clouds.7 mph87%30.54 "HgN/A
7:20 AM41 °FQuite cool.6 mph93%30.54 "HgN/A
6:50 AM39 °FSunny.3 mph93%30.54 "Hg10 mi
6:20 AM37 °FClear.5 mph93%30.54 "Hg10 mi
5:50 AM37 °FClear.5 mph93%30.51 "Hg10 mi
5:20 AM37 °FClear.6 mph93%30.51 "Hg10 mi
4:20 AM37 °FChilly.3 mph93%30.51 "HgN/A
3:50 AM39 °FChilly.3 mph87%30.51 "HgN/A
3:20 AM39 °FClear.5 mph87%30.51 "Hg10 mi
2:50 AM39 °FClear.5 mph87%30.51 "Hg10 mi
2:20 AM41 °FClear.3 mph81%30.51 "Hg10 mi
1:50 AM41 °FClear.2 mph81%30.51 "Hg10 mi
1:20 AM41 °FClear.5 mph81%30.51 "Hg10 mi
12:50 AM41 °FClear.5 mph81%30.51 "Hg10 mi
12:20 AM43 °FClear.6 mph81%30.51 "Hg10 mi
11:50 PM
Mon, Apr 20
43 °FQuite cool.5 mph81%30.51 "HgN/A
11:20 PM45 °FQuite cool.3 mph76%30.48 "HgN/A
10:50 PM45 °FClear.6 mph76%30.48 "Hg10 mi
10:20 PM48 °FClear.3 mph71%30.48 "Hg10 mi
9:50 PM48 °FClear.3 mph71%30.48 "Hg10 mi
9:20 PM48 °FClear.3 mph71%30.48 "Hg10 mi
8:50 PM50 °FSunny.3 mph67%30.45 "Hg10 mi
8:20 PM52 °FSunny.7 mph67%30.45 "Hg10 mi
7:50 PM55 °FSunny.7 mph59%30.45 "Hg10 mi
7:20 PM57 °FSunny.8 mph51%30.42 "Hg10 mi
6:50 PM59 °FSunny.8 mph51%30.42 "Hg10 mi
6:20 PM61 °FSunny.9 mph48%30.42 "Hg10 mi
5:50 PM63 °FPassing clouds.9 mph49%30.42 "HgN/A
5:20 PM63 °FPassing clouds.9 mph49%30.42 "HgN/A
4:50 PM63 °FPassing clouds.8 mph49%30.42 "HgN/A
4:20 PM63 °FPassing clouds.8 mph49%30.42 "HgN/A
3:50 PM63 °FPassing clouds.8 mph49%30.42 "HgN/A
3:20 PM63 °FPassing clouds.7 mph49%30.42 "HgN/A
2:50 PM61 °FPassing clouds.10 mph55%30.42 "HgN/A
2:20 PM61 °FPassing clouds.9 mph59%30.45 "HgN/A
1:50 PM59 °FPassing clouds.9 mph59%30.45 "HgN/A
1:20 PM59 °FPassing clouds.9 mph59%30.42 "HgN/A
Weather by CustomWeather, © 2015

See weather overviewHow to use our weather pages